Tracking 22440 objects as of 27-Feb-2021
HD Live streaming from Space Station
objects crossing your sky now

TITAN 3C TRANSTAGE DEB

Track TITAN 3C TRANSTAGE DEB now!


NORAD ID: 26525
Int'l Code: 1965-108AL
Perigee: 548.6 km
Apogee: 29,065.6 km
Inclination: 26.5 °
Period: 511.2 minutes
Semi major axis: 21178 km
RCS: 0.1939 m2 (medium)
Launch date: December 21, 1965
Source: United States (US)
Launch site: AIR FORCE EASTERN TEST RANGE (AFETR)

Note: This is SATELLITE DEBRIS
aabbcc
Your satellite tracking list
Your tracking list is empty




NASA's NSSDC Master Catalog

Two Line Element Set (TLE):
1 26525U 65108AL  21055.40340323 -.00000092  00000-0  26487-3 0  9994
2 26525  26.4841 312.2032 6732645   7.1667 265.6113  2.81690106215948
Source of the keplerian elements: AFSPC